| time (UTC) | temp F | wind direction | speed MPH | gust MPH | rain 1hr in | rain 24hr in | rain mn in | humidity % | barometer mb |
| 20260508170050 | 71 | 29 | 0.0 | 4.0 | 0.00 | 0.00 | 0.00 | 85 | 1013.3 |
| 20260508164549 | 69 | 337 | 0.0 | 3.0 | 0.00 | 0.00 | 0.00 | 87 | 1013.5 |
| 20260508163048 | 68 | 120 | 2.0 | 5.0 | 0.00 | 0.00 | 0.00 | 87 | 1014.1 |
| 20260508161548 | 67 | 0 | 1.0 | 5.0 | 0.00 | 0.00 | 0.00 | 90 | 1013.8 |
| 20260508160050 | 65 | 0 | 0.0 | 4.0 | 0.00 | 0.00 | 0.00 | 91 | 1014.3 |
| 20260508154550 | 64 | 0 | 0.0 | 3.0 | 0.00 | 0.00 | 0.00 | 92 | 1014.6 |
| 20260508153043 | 63 | 0 | 0.0 | 0.0 | 0.00 | 0.00 | 0.00 | 93 | 1014.9 |
| 20260508151557 | 62 | 0 | 0.0 | 1.0 | 0.00 | 0.00 | 0.00 | 94 | 1014.9 |
| 20260508150047 | 62 | 0 | 0.0 | 0.0 | 0.00 | 0.00 | 0.00 | 94 | 1015.0 |
| 20260508144550 | 61 | 0 | 0.0 | 0.0 | 0.00 | 0.00 | 0.00 | 94 | 1015.0 |
| 20260508143055 | 61 | 0 | 0.0 | 0.0 | 0.00 | 0.00 | 0.00 | 94 | 1015.3 |
| 20260508141544 | 60 | 0 | 0.0 | 0.0 | 0.00 | 0.00 | 0.00 | 94 | 1015.3 |
| 20260508140051 | 60 | 0 | 0.0 | 2.0 | 0.00 | 0.00 | 0.00 | 94 | 1015.3 |
| 20260508134552 | 60 | 31 | 0.0 | 5.0 | 0.00 | 0.00 | 0.00 | 94 | 1015.1 |
| 20260508133050 | 60 | 336 | 0.0 | 2.0 | 0.00 | 0.00 | 0.00 | 94 | 1014.9 |
| 20260508131548 | 59 | 0 | 0.0 | 2.0 | 0.00 | 0.00 | 0.00 | 94 | 1015.1 |
| 20260508130100 | 59 | 0 | 0.0 | 0.0 | 0.00 | 0.00 | 0.00 | 94 | 1014.8 |
| 20260508124549 | 59 | 303 | 1.0 | 3.0 | 0.00 | 0.00 | 0.00 | 93 | 1015.0 |
| 20260508123055 | 59 | 328 | 0.0 | 4.0 | 0.00 | 0.00 | 0.00 | 93 | 1014.6 |
| 20260508121546 | 59 | 327 | 0.0 | 3.0 | 0.00 | 0.00 | 0.00 | 92 | 1014.7 |
| 20260508120051 | 59 | 0 | 0.0 | 3.0 | 0.00 | 0.00 | 0.00 | 91 | 1014.7 |
| 20260508114549 | 60 | 40 | 1.0 | 4.0 | 0.00 | 0.00 | 0.00 | 91 | 1015.2 |
| 20260508113047 | 60 | 66 | 0.0 | 3.0 | 0.00 | 0.00 | 0.00 | 91 | 1015.3 |
| 20260508111551 | 60 | 0 | 0.0 | 3.0 | 0.00 | 0.00 | 0.00 | 90 | 1015.0 |
| 20260508110047 | 60 | 0 | 0.0 | 0.0 | 0.00 | 0.00 | 0.00 | 90 | 1015.1 |
| 20260508104552 | 60 | 0 | 0.0 | 1.0 | 0.00 | 0.00 | 0.00 | 90 | 1015.2 |
| 20260508103046 | 60 | 0 | 0.0 | 2.0 | 0.00 | 0.00 | 0.00 | 89 | 1015.2 |
| 20260508101547 | 60 | 0 | 0.0 | 0.0 | 0.00 | 0.00 | 0.00 | 89 | 1015.2 |
| 20260508100047 | 60 | 0 | 0.0 | 0.0 | 0.00 | 0.00 | 0.00 | 90 | 1015.1 |
| 20260508094549 | 60 | 0 | 0.0 | 1.0 | 0.00 | 0.00 | 0.00 | 89 | 1014.9 |
| 20260508093053 | 60 | 0 | 0.0 | 2.0 | 0.00 | 0.00 | 0.00 | 88 | 1015.2 |
| 20260508091556 | 60 | 312 | 0.0 | 3.0 | 0.00 | 0.00 | 0.00 | 87 | 1015.3 |
| 20260508090054 | 60 | 0 | 0.0 | 2.0 | 0.00 | 0.00 | 0.00 | 88 | 1015.1 |
| 20260508084541 | 60 | 0 | 0.0 | 3.0 | 0.00 | 0.00 | 0.00 | 87 | 1014.9 |
| 20260508083047 | 60 | 15 | 0.0 | 2.0 | 0.00 | 0.00 | 0.00 | 87 | 1015.2 |
| 20260508081553 | 60 | 0 | 0.0 | 3.0 | 0.00 | 0.00 | 0.00 | 88 | 1015.2 |
| 20260508080048 | 60 | 0 | 0.0 | 3.0 | 0.00 | 0.00 | 0.00 | 87 | 1015.4 |
| 20260508074543 | 61 | 0 | 0.0 | 0.0 | 0.00 | 0.00 | 0.00 | 88 | 1015.6 |
| 20260508073056 | 60 | 0 | 0.0 | 0.0 | 0.00 | 0.00 | 0.00 | 87 | 1015.7 |
| 20260508071559 | 61 | 0 | 0.0 | 0.0 | 0.00 | 0.00 | 0.00 | 87 | 1015.9 |
| 20260508070057 | 61 | 0 | 0.0 | 0.0 | 0.00 | 0.00 | 0.00 | 86 | 1015.7 |
| 20260508064550 | 61 | 0 | 0.0 | 0.0 | 0.00 | 0.00 | 0.00 | 86 | 1016.2 |
| 20260508063046 | 61 | 0 | 0.0 | 0.0 | 0.00 | 0.00 | 0.00 | 86 | 1016.0 |
| 20260508061547 | 61 | 0 | 0.0 | 0.0 | 0.00 | 0.00 | 0.00 | 85 | 1015.6 |
| 20260508060049 | 61 | 0 | 0.0 | 0.0 | 0.00 | 0.00 | 0.00 | 84 | 1015.4 |
| 20260508054549 | 61 | 0 | 0.0 | 5.0 | 0.00 | 0.00 | 0.00 | 85 | 1015.3 |
| 20260508053051 | 61 | 0 | 0.0 | 0.0 | 0.00 | 0.00 | 0.00 | 86 | 1015.9 |
| 20260508051550 | 61 | 0 | 0.0 | 0.0 | 0.00 | 0.00 | 0.00 | 86 | 1016.5 |
| 20260508050047 | 61 | 0 | 0.0 | 2.0 | 0.00 | 0.00 | 0.00 | 85 | 1016.7 |
| 20260508044551 | 61 | 0 | 0.0 | 2.0 | 0.00 | 0.00 | 0.00 | 84 | 1016.6 |
| 20260508043048 | 61 | 279 | 0.0 | 4.0 | 0.00 | 0.00 | 0.00 | 84 | 1016.3 |
| 20260508041542 | 61 | 265 | 2.0 | 5.0 | 0.00 | 0.00 | 0.00 | 83 | 1016.1 |
| 20260508040057 | 61 | 0 | 0.0 | 6.0 | 0.00 | 0.00 | 0.00 | 83 | 1017.1 |
| 20260508034548 | 60 | 229 | 2.0 | 8.0 | 0.00 | 0.00 | 0.00 | 83 | 1016.9 |
| 20260508033111 | 60 | 210 | 2.0 | 8.0 | 0.00 | 0.00 | 0.00 | 84 | 1016.3 |
| 20260508031545 | 60 | 17 | 2.0 | 7.0 | 0.00 | 0.00 | 0.00 | 83 | 1014.3 |
| 20260508030051 | 61 | 0 | 0.0 | 4.0 | 0.00 | 0.00 | 0.00 | 84 | 1015.9 |
| 20260508024545 | 61 | 0 | 1.0 | 5.0 | 0.00 | 0.00 | 0.00 | 85 | 1016.0 |
| 20260508023048 | 61 | 0 | 0.0 | 0.0 | 0.00 | 0.00 | 0.00 | 84 | 1016.7 |
| 20260508021548 | 61 | 0 | 0.0 | 0.0 | 0.00 | 0.00 | 0.00 | 86 | 1016.5 |
| 20260508020103 | 61 | 0 | 0.0 | 1.0 | 0.00 | 0.00 | 0.00 | 85 | 1016.6 |
| 20260508014555 | 61 | 0 | 0.0 | 2.0 | 0.00 | 0.00 | 0.00 | 83 | 1016.3 |
| 20260508013056 | 61 | 290 | 2.0 | 8.0 | 0.00 | 0.00 | 0.00 | 84 | 1015.6 |
| 20260508011545 | 61 | 202 | 1.0 | 4.0 | 0.00 | 0.00 | 0.00 | 84 | 1015.6 |
| 20260508010041 | 61 | 306 | 2.0 | 7.0 | 0.00 | 0.00 | 0.00 | 84 | 1014.5 |
| 20260508004548 | 61 | 217 | 2.0 | 8.0 | 0.00 | 0.00 | 0.00 | 84 | 1015.6 |
| 20260508003046 | 61 | 215 | 2.0 | 6.0 | 0.00 | 0.00 | 0.00 | 84 | 1015.5 |
| 20260508001554 | 61 | 300 | 1.0 | 7.0 | 0.00 | 0.00 | 0.00 | 84 | 1014.8 |
| 20260508000048 | 61 | 304 | 2.0 | 8.0 | 0.00 | 0.00 | 0.00 | 84 | 1014.7 |
| 20260507234541 | 60 | 281 | 4.0 | 12.0 | 0.00 | 0.00 | 0.00 | 85 | 1014.9 |
| 20260507233041 | 60 | 275 | 3.0 | 8.0 | 0.00 | 0.00 | 0.00 | 87 | 1014.9 |
| 20260507231548 | 60 | 224 | 2.0 | 8.0 | 0.00 | 0.00 | 0.00 | 88 | 1015.5 |
| 20260507230053 | 60 | 342 | 0.0 | 9.0 | 0.00 | 0.00 | 0.00 | 86 | 1016.6 |
| 20260507224548 | 61 | 229 | 4.0 | 11.0 | 0.00 | 0.00 | 0.00 | 85 | 1016.7 |
| 20260507223047 | 62 | 333 | 1.0 | 6.0 | 0.00 | 0.00 | 0.00 | 84 | 1015.8 |
| 20260507221540 | 62 | 301 | 2.0 | 9.0 | 0.00 | 0.00 | 0.00 | 82 | 1016.0 |
| 20260507220048 | 62 | 235 | 3.0 | 8.0 | 0.00 | 0.00 | 0.00 | 82 | 1016.3 |
| 20260507214548 | 62 | 327 | 3.0 | 8.0 | 0.00 | 0.00 | 0.00 | 81 | 1016.6 |
| 20260507213053 | 63 | 269 | 4.0 | 11.0 | 0.00 | 0.00 | 0.00 | 79 | 1017.5 |
| 20260507211551 | 63 | 328 | 3.0 | 9.0 | 0.00 | 0.00 | 0.00 | 79 | 1017.5 |
| 20260507210045 | 63 | 289 | 3.0 | 10.0 | 0.00 | 0.00 | 0.00 | 79 | 1017.4 |
| 20260507204542 | 64 | 313 | 5.0 | 9.0 | 0.00 | 0.00 | 0.00 | 76 | 1017.5 |
| 20260507203047 | 64 | 275 | 4.0 | 11.0 | 0.00 | 0.00 | 0.00 | 77 | 1017.7 |
| 20260507201549 | 64 | 302 | 3.0 | 10.0 | 0.00 | 0.00 | 0.00 | 76 | 1017.5 |
| 20260507200048 | 63 | 283 | 4.0 | 11.0 | 0.00 | 0.00 | 0.00 | 77 | 1017.5 |
| 20260507194544 | 63 | 331 | 5.0 | 15.0 | 0.00 | 0.00 | 0.00 | 78 | 1017.4 |
| 20260507193045 | 63 | 333 | 5.0 | 14.0 | 0.00 | 0.00 | 0.00 | 79 | 1017.5 |
| 20260507191544 | 63 | 346 | 4.0 | 14.0 | 0.00 | 0.00 | 0.00 | 81 | 1017.4 |
| 20260507190048 | 63 | 265 | 5.0 | 11.0 | 0.00 | 0.00 | 0.00 | 80 | 1018.2 |
| 20260507184546 | 63 | 289 | 4.0 | 12.0 | 0.00 | 0.00 | 0.00 | 80 | 1018.0 |
| 20260507183053 | 63 | 316 | 4.0 | 9.0 | 0.00 | 0.00 | 0.00 | 80 | 1018.5 |
| 20260507181546 | 63 | 304 | 3.0 | 8.0 | 0.00 | 0.00 | 0.00 | 80 | 1018.6 |
| 20260507180052 | 63 | 248 | 4.0 | 10.0 | 0.00 | 0.00 | 0.00 | 81 | 1018.9 |
| 20260507174542 | 61 | 10 | 3.0 | 9.0 | 0.00 | 0.02 | 0.00 | 86 | 1018.5 |
| 20260507173058 | 59 | 274 | 4.0 | 11.0 | 0.00 | 0.02 | 0.00 | 86 | 1018.6 |
| 20260507171552 | 59 | 352 | 4.0 | 13.0 | 0.00 | 0.02 | 0.00 | 86 | 1018.6 |